Weather History for Giddings, TX

Change the Weather History Date:

Friday, November 9, 2012

  Actual Average (KAUS) Record (KAUS)
Temperature  
Mean Temperature 71 °F 61 °F  
Max Temperature 82 °F 74 °F 88 °F (1988)
Min Temperature 60 °F 48 °F 26 °F (1991)
Degree Days  
Heating Degree Days 0 6  
Month to date heating degree days 42  
Since 1 July heating degree days 93  
Cooling Degree Days 6 2  
Month to date cooling degree days 19  
Year to date cooling degree days 2722  
Growing Degree Days 21 (Base 50)    
Moisture  
Dew Point 58 °F    
Average Humidity 70    
Maximum Humidity 100    
Minimum Humidity 32    
Precipitation  
Precipitation 0.00 in 0.10 in 2.12 in (1967)
Month to date precipitation 1.01  
Year to date precipitation 30.97  
Snow  
Snow 0.00 in - - ()
Month to date snowfall  
Since 1 July snowfall  
Since 1 September snowfall  
Snow Depth -    
Sea Level Pressure  
Sea Level Pressure 30.09 in    
Wind  
Wind Speed 7 mph (South)    
Max Wind Speed 18 mph    
Max Gust Speed 26 mph    
Visibility 10 miles    
Events      
T = Trace of Precipitation, MM = Missing Value Source: NWS Daily Summary

Daily Weather History Graph

Daily Weather History Graph

Search for Another Location

Airport:

Trip Planner

Search our weather history database for the weather conditions in past years. The results will help you decide how hot, cold, wet, or windy it might be!

Date:

Astronomy

Nov. 09, 2012 Rise Set
Actual Time 6:48 AM CST 5:34 PM CST
Civil Twilight 6:23 AM CST 5:59 PM CST
Nautical Twilight 5:54 AM CST 6:28 PM CST
Astronomical Twilight 5:26 AM CST 6:56 PM CST
Moon 2:08 AM CST (11/9) 2:31 PM CST (11/9)
Length of Visible Light 11h 35m
Length of Day
10h 45m
Waning Crescent, 23% of the Moon is Illuminated
Nov 9
Waning Crescent
Nov 13
New
Nov 20
First Quarter
Nov 28
Full
Dec 6
Last Quarter

Hourly Weather History & Observations

Time (CST) Temp. Heat Index Dew Point Humidity Pressure Visibility Wind Dir Wind Speed Gust Speed Precip Events Conditions
12:15 AM 64.4 °F - 59.0 °F 83% 30.10 in 10.0 mi South 5.8 mph - N/A   Clear
12:35 AM 64.4 °F - 59.0 °F 83% 30.10 in 10.0 mi South 4.6 mph - N/A   Clear
12:55 AM 62.6 °F - 59.0 °F 88% 30.10 in 10.0 mi South 4.6 mph - N/A   Clear
1:15 AM 62.6 °F - 59.0 °F 88% 30.10 in 10.0 mi South 4.6 mph - N/A   Clear
1:35 AM 62.6 °F - 59.0 °F 88% 30.10 in 10.0 mi South 3.5 mph - N/A   Clear
1:55 AM 62.6 °F - 59.0 °F 88% 30.10 in 10.0 mi South 3.5 mph - N/A   Clear
2:15 AM 62.6 °F - 59.0 °F 88% 30.10 in 10.0 mi South 4.6 mph - N/A   Clear
2:35 AM 62.6 °F - 59.0 °F 88% 30.09 in 10.0 mi South 4.6 mph - N/A   Clear
2:55 AM 60.8 °F - 59.0 °F 94% 30.09 in 10.0 mi South 3.5 mph - N/A   Scattered Clouds
3:15 AM 62.6 °F - 59.0 °F 88% 30.09 in 10.0 mi South 3.5 mph - N/A   Mostly Cloudy
3:35 AM 62.6 °F - 59.0 °F 88% 30.09 in 10.0 mi South 4.6 mph - N/A   Mostly Cloudy
3:55 AM 62.6 °F - 59.0 °F 88% 30.09 in 10.0 mi South 4.6 mph - N/A   Mostly Cloudy
4:15 AM 62.6 °F - 60.8 °F 94% 30.09 in 10.0 mi South 3.5 mph - N/A   Scattered Clouds
4:35 AM 62.6 °F - 60.8 °F 94% 30.09 in 10.0 mi South 3.5 mph - N/A   Mostly Cloudy
4:55 AM 62.6 °F - 60.8 °F 94% 30.09 in 10.0 mi South 3.5 mph - N/A   Scattered Clouds
5:15 AM 60.8 °F - 60.8 °F 100% 30.09 in 10.0 mi Calm Calm - N/A   Scattered Clouds
5:35 AM 60.8 °F - 60.8 °F 100% 30.09 in 10.0 mi Calm Calm - N/A   Scattered Clouds
5:55 AM 60.8 °F - 60.8 °F 100% 30.10 in 10.0 mi South 3.5 mph - N/A   Mostly Cloudy
6:15 AM 60.8 °F - 60.8 °F 100% 30.10 in 10.0 mi South 3.5 mph - N/A   Overcast
6:35 AM 62.6 °F - 60.8 °F 94% 30.10 in 10.0 mi Calm Calm - N/A   Overcast
6:55 AM 62.6 °F - 60.8 °F 94% 30.10 in 10.0 mi Calm Calm - N/A   Overcast
7:15 AM 62.6 °F - 60.8 °F 94% 30.10 in 10.0 mi SSE 3.5 mph - N/A   Mostly Cloudy
7:35 AM 62.6 °F - 60.8 °F 94% 30.11 in 10.0 mi SSE 3.5 mph - N/A   Mostly Cloudy
7:55 AM 64.4 °F - 62.6 °F 94% 30.11 in 10.0 mi South 5.8 mph - N/A   Mostly Cloudy
8:15 AM 66.2 °F - 62.6 °F 88% 30.12 in 10.0 mi South 5.8 mph - N/A   Mostly Cloudy
8:35 AM 68.0 °F - 62.6 °F 83% 30.12 in 10.0 mi South 9.2 mph - N/A   Mostly Cloudy
8:55 AM 69.8 °F - 62.6 °F 78% 30.13 in 10.0 mi South 6.9 mph - N/A   Mostly Cloudy
9:15 AM 69.8 °F - 62.6 °F 78% 30.13 in 10.0 mi South 6.9 mph - N/A   Mostly Cloudy
9:35 AM 71.6 °F - 62.6 °F 73% 30.14 in 10.0 mi South 11.5 mph 18.4 mph N/A   Scattered Clouds
9:55 AM 73.4 °F - 62.6 °F 69% 30.13 in 10.0 mi South 8.1 mph 19.6 mph N/A   Scattered Clouds
10:15 AM 73.4 °F - 62.6 °F 69% 30.13 in 10.0 mi South 13.8 mph 20.7 mph N/A   Scattered Clouds
10:35 AM 77.0 °F - 62.6 °F 61% 30.13 in 10.0 mi SSW 15.0 mph 23.0 mph N/A   Mostly Cloudy
10:55 AM 77.0 °F - 60.8 °F 57% 30.12 in 7.0 mi South 13.8 mph 20.7 mph N/A   Scattered Clouds
11:15 AM 78.8 °F - 60.8 °F 54% 30.12 in 10.0 mi South 18.4 mph 26.5 mph N/A   Scattered Clouds
11:35 AM 78.8 °F - 59.0 °F 51% 30.12 in 10.0 mi South 15.0 mph 25.3 mph N/A   Scattered Clouds
11:55 AM 78.8 °F - 59.0 °F 51% 30.11 in 10.0 mi South 16.1 mph 24.2 mph N/A   Scattered Clouds
12:15 PM 80.6 °F 81.1 °F 59.0 °F 48% 30.10 in 10.0 mi South 11.5 mph 25.3 mph N/A   Scattered Clouds
12:35 PM 82.4 °F 82.0 °F 57.2 °F 42% 30.08 in 10.0 mi South 10.4 mph 24.2 mph N/A   Scattered Clouds
12:55 PM 80.6 °F 80.5 °F 55.4 °F 42% 30.07 in 10.0 mi SSW 17.3 mph 24.2 mph N/A   Mostly Cloudy
1:15 PM 82.4 °F 81.7 °F 55.4 °F 39% 30.06 in 10.0 mi South 12.7 mph 20.7 mph N/A   Mostly Cloudy
1:35 PM 82.4 °F 81.4 °F 53.6 °F 37% 30.06 in 10.0 mi South 13.8 mph 24.2 mph N/A   Scattered Clouds
1:55 PM 82.4 °F 81.4 °F 53.6 °F 37% 30.05 in 10.0 mi South 16.1 mph 20.7 mph N/A   Scattered Clouds
2:15 PM 82.4 °F 81.4 °F 53.6 °F 37% 30.04 in 10.0 mi South 12.7 mph 21.9 mph N/A   Scattered Clouds
2:35 PM 82.4 °F - 50.0 °F 32% 30.04 in 10.0 mi South 17.3 mph 23.0 mph N/A   Scattered Clouds
2:55 PM 82.4 °F - 50.0 °F 32% 30.03 in 10.0 mi South 13.8 mph 24.2 mph N/A   Clear
3:15 PM 82.4 °F - 50.0 °F 32% 30.02 in 10.0 mi South 16.1 mph 23.0 mph N/A   Clear
3:55 PM 80.6 °F - 50.0 °F 34% 30.02 in 10.0 mi SSW 12.7 mph 18.4 mph N/A   Clear
4:15 PM 80.6 °F - 50.0 °F 34% 30.02 in 10.0 mi South 12.7 mph 21.9 mph N/A   Clear
4:35 PM 78.8 °F - 53.6 °F 42% 30.02 in 10.0 mi SSE 10.4 mph 19.6 mph N/A   Clear
4:55 PM 78.8 °F - 53.6 °F 42% 30.03 in 10.0 mi SSE 11.5 mph 19.6 mph N/A   Clear
5:15 PM 77.0 °F - 53.6 °F 44% 30.03 in 10.0 mi SSE 9.2 mph 17.3 mph N/A   Clear
5:35 PM 77.0 °F - 51.8 °F 41% 30.04 in 10.0 mi SSE 10.4 mph 16.1 mph N/A   Clear
5:55 PM 75.2 °F - 53.6 °F 47% 30.04 in 10.0 mi SSE 9.2 mph - N/A   Clear
6:15 PM 73.4 °F - 55.4 °F 53% 30.05 in 10.0 mi SSE 8.1 mph - N/A   Clear
6:35 PM 73.4 °F - 55.4 °F 53% 30.06 in 10.0 mi SSE 9.2 mph - N/A   Clear
6:55 PM 71.6 °F - 57.2 °F 60% 30.06 in 10.0 mi South 9.2 mph 16.1 mph N/A   Clear
7:15 PM 71.6 °F - 55.4 °F 57% 30.07 in 10.0 mi South 8.1 mph - N/A   Clear
7:35 PM 69.8 °F - 55.4 °F 60% 30.07 in 10.0 mi SSE 6.9 mph - N/A   Clear
7:55 PM 69.8 °F - 57.2 °F 64% 30.08 in 10.0 mi SSE 9.2 mph - N/A   Clear
8:15 PM 69.8 °F - 59.0 °F 68% 30.08 in 10.0 mi South 6.9 mph - N/A   Clear
8:35 PM 69.8 °F - 59.0 °F 68% 30.09 in 10.0 mi SSE 6.9 mph - N/A   Clear
8:55 PM 68.0 °F - 59.0 °F 73% 30.09 in 10.0 mi SSE 6.9 mph - N/A   Clear
9:35 PM 68.0 °F - 60.8 °F 78% 30.10 in 10.0 mi SSE 8.1 mph - N/A   Clear
9:55 PM 66.2 °F - 60.8 °F 83% 30.10 in 10.0 mi SSE 5.8 mph - N/A   Clear
10:15 PM 66.2 °F - 60.8 °F 83% 30.10 in 10.0 mi SSE 6.9 mph - N/A   Clear
10:55 PM 66.2 °F - 60.8 °F 83% 30.10 in 10.0 mi SSE 8.1 mph - N/A   Scattered Clouds
11:15 PM 66.2 °F - 60.8 °F 83% 30.10 in 10.0 mi SSE 8.1 mph - N/A   Scattered Clouds
11:35 PM 66.2 °F - 60.8 °F 83% 30.09 in 10.0 mi SSE 8.1 mph - N/A   Scattered Clouds
11:55 PM 64.4 °F - 60.8 °F 88% 30.09 in 10.0 mi SSE 6.9 mph - N/A   Scattered Clouds